Location: Góry Miechowskie
(50.3599°N, 20.1803°E)
Time: 02:43:08
(UTC+00:00)

SR - Pass Details

Date: 22 September 2024
Orbit: 578 x 855 km, 66.7° (Epoch: 04 October)

Event Time Altitude Azimuth Distance (km) Brightness Sun altitude
Rises 17:30:48 0° 325° (NW) 2,909 ? -9.4°
Reaches altitude 10° 17:33:07 10° 333° (NNW) 2,035 ? -9.8°
Maximum altitude 17:37:30 42° 45° (NE) 957 ? -10.5°
Enters shadow 17:41:18 15° 112° (ESE) 1,865 ? -11.1°
